contact:dominique.lefevre@mio.osupytheas.fr, maurice.libes@osupytheas.fr, didier.mallarino@osupytheas.fr
Project:EMSO http://www.emso-fr.org/EMSO-France
Depth: 2436.0 m
Title:EMSO Ligure Ouest : Data MII capteur MICROCAT
DateTime_Computer,Latitude,Longitude,Temperature,Conductivity,Pressure,DateTime_Instrument
DateTime_Computer,Latitude,Longitude,degC,S m-1,dbar,DateTime_Instrument
2021-11-07T00:01:01Z,42.805,6.029,13.2991,4.60011,2470.437,2021-11-07T02:02:26Z
2021-11-07T00:04:04Z,42.805,6.029,13.2988,4.60014,2470.437,2021-11-07T02:05:29Z
2021-11-07T00:07:07Z,42.805,6.029,13.2992,4.60011,2470.437,2021-11-07T02:08:32Z
2021-11-07T00:10:10Z,42.805,6.029,13.2998,4.60014,2470.437,2021-11-07T02:11:35Z
2021-11-07T00:13:13Z,42.805,6.029,13.2993,4.60013,2470.474,2021-11-07T02:14:38Z
2021-11-07T00:16:16Z,42.805,6.029,13.2993,4.60012,2470.45,2021-11-07T02:17:42Z
2021-11-07T00:19:19Z,42.805,6.029,13.2990,4.60013,2470.413,2021-11-07T02:20:45Z
2021-11-07T00:22:22Z,42.805,6.029,13.2993,4.60014,2470.427,2021-11-07T02:23:48Z
2021-11-07T00:25:26Z,42.805,6.029,13.2992,4.60013,2470.437,2021-11-07T02:26:51Z
2021-11-07T00:28:29Z,42.805,6.029,13.2993,4.60014,2470.427,2021-11-07T02:29:54Z
2021-11-07T00:31:32Z,42.805,6.029,13.2996,4.60013,2470.437,2021-11-07T02:32:57Z
2021-11-07T00:34:35Z,42.805,6.029,13.2992,4.60011,2470.39,2021-11-07T02:36:00Z
2021-11-07T00:37:38Z,42.805,6.029,13.2990,4.60012,2470.39,2021-11-07T02:39:03Z
2021-11-07T00:40:41Z,42.805,6.029,13.2990,4.60011,2470.413,2021-11-07T02:42:06Z
2021-11-07T00:43:44Z,42.805,6.029,13.2993,4.60012,2470.38,2021-11-07T02:45:10Z
2021-11-07T00:46:47Z,42.805,6.029,13.2994,4.60014,2470.404,2021-11-07T02:48:13Z
2021-11-07T00:49:51Z,42.805,6.029,13.2990,4.60013,2470.413,2021-11-07T02:51:16Z
2021-11-07T00:52:54Z,42.805,6.029,13.2995,4.60015,2470.39,2021-11-07T02:54:19Z
2021-11-07T00:55:57Z,42.805,6.029,13.2991,4.60013,2470.366,2021-11-07T02:57:22Z
2021-11-07T00:59:00Z,42.805,6.029,13.2993,4.60013,2470.38,2021-11-07T03:00:25Z
2021-11-07T01:02:03Z,42.805,6.029,13.2991,4.60014,2470.427,2021-11-07T03:03:28Z
2021-11-07T01:05:06Z,42.805,6.029,13.2993,4.60012,2470.39,2021-11-07T03:06:31Z
2021-11-07T01:08:09Z,42.805,6.029,13.2996,4.60014,2470.38,2021-11-07T03:09:35Z
2021-11-07T01:11:12Z,42.805,6.029,13.2991,4.60014,2470.39,2021-11-07T03:12:38Z
2021-11-07T01:14:15Z,42.805,6.029,13.2995,4.60013,2470.404,2021-11-07T03:15:41Z
2021-11-07T01:17:19Z,42.805,6.029,13.2991,4.60014,2470.404,2021-11-07T03:18:44Z
2021-11-07T01:20:22Z,42.805,6.029,13.2990,4.60011,2470.427,2021-11-07T03:21:47Z
2021-11-07T01:23:25Z,42.805,6.029,13.2997,4.60011,2470.39,2021-11-07T03:24:50Z
2021-11-07T01:26:28Z,42.805,6.029,13.2992,4.60014,2470.366,2021-11-07T03:27:53Z
2021-11-07T01:29:31Z,42.805,6.029,13.2991,4.60013,2470.38,2021-11-07T03:30:56Z
2021-11-07T01:32:34Z,42.805,6.029,13.2991,4.60014,2470.38,2021-11-07T03:33:59Z
2021-11-07T01:35:37Z,42.805,6.029,13.2992,4.60011,2470.366,2021-11-07T03:37:03Z
2021-11-07T01:38:40Z,42.805,6.029,13.2987,4.60012,2470.343,2021-11-07T03:40:06Z
2021-11-07T01:41:44Z,42.805,6.029,13.2991,4.60011,2470.357,2021-11-07T03:43:09Z
2021-11-07T01:44:47Z,42.805,6.029,13.2992,4.60012,2470.343,2021-11-07T03:46:12Z
2021-11-07T01:47:50Z,42.805,6.029,13.2991,4.60013,2470.38,2021-11-07T03:49:15Z
2021-11-07T01:50:53Z,42.805,6.029,13.2994,4.60014,2470.343,2021-11-07T03:52:18Z
2021-11-07T01:53:56Z,42.805,6.029,13.2994,4.60013,2470.38,2021-11-07T03:55:21Z
2021-11-07T01:56:59Z,42.805,6.029,13.2994,4.60014,2470.38,2021-11-07T03:58:24Z
2021-11-07T02:00:02Z,42.805,6.029,13.2990,4.60014,2470.366,2021-11-07T04:01:28Z
2021-11-07T02:03:05Z,42.805,6.029,13.2991,4.60012,2470.38,2021-11-07T04:04:31Z
2021-11-07T02:06:08Z,42.805,6.029,13.2995,4.60011,2470.343,2021-11-07T04:07:34Z
2021-11-07T02:09:12Z,42.805,6.029,13.2993,4.60014,2470.366,2021-11-07T04:10:37Z
2021-11-07T02:12:15Z,42.805,6.029,13.2991,4.60015,2470.343,2021-11-07T04:13:40Z
2021-11-07T02:15:18Z,42.805,6.029,13.2993,4.60014,2470.366,2021-11-07T04:16:43Z
2021-11-07T02:18:21Z,42.805,6.029,13.2996,4.60013,2470.357,2021-11-07T04:19:46Z
2021-11-07T02:21:24Z,42.805,6.029,13.2992,4.60012,2470.366,2021-11-07T04:22:49Z
2021-11-07T02:24:27Z,42.805,6.029,13.2991,4.60014,2470.366,2021-11-07T04:25:52Z
2021-11-07T02:27:30Z,42.805,6.029,13.2992,4.60014,2470.343,2021-11-07T04:28:56Z
2021-11-07T02:30:33Z,42.805,6.029,13.2990,4.60014,2470.32,2021-11-07T04:31:59Z
2021-11-07T02:33:37Z,42.805,6.029,13.2990,4.60012,2470.366,2021-11-07T04:35:02Z
2021-11-07T02:36:40Z,42.805,6.029,13.2996,4.60016,2470.357,2021-11-07T04:38:05Z
2021-11-07T02:39:43Z,42.805,6.029,13.2991,4.60014,2470.32,2021-11-07T04:41:08Z
2021-11-07T02:42:46Z,42.805,6.029,13.2993,4.60011,2470.357,2021-11-07T04:44:11Z
2021-11-07T02:45:49Z,42.805,6.029,13.2993,4.60011,2470.32,2021-11-07T04:47:14Z
2021-11-07T02:48:52Z,42.805,6.029,13.2993,4.60011,2470.32,2021-11-07T04:50:17Z
2021-11-07T02:51:55Z,42.805,6.029,13.2992,4.60014,2470.343,2021-11-07T04:53:21Z
2021-11-07T02:54:58Z,42.805,6.029,13.2991,4.60015,2470.366,2021-11-07T04:56:24Z
2021-11-07T02:58:01Z,42.805,6.029,13.2992,4.60019,2470.32,2021-11-07T04:59:27Z
2021-11-07T03:01:05Z,42.805,6.029,13.2995,4.60013,2470.38,2021-11-07T05:02:30Z
2021-11-07T03:04:08Z,42.805,6.029,13.2990,4.60011,2470.32,2021-11-07T05:05:33Z
2021-11-07T03:07:11Z,42.805,6.029,13.2994,4.60011,2470.32,2021-11-07T05:08:36Z
2021-11-07T03:10:14Z,42.805,6.029,13.2992,4.60016,2470.357,2021-11-07T05:11:39Z
2021-11-07T03:13:17Z,42.805,6.029,13.2989,4.60015,2470.357,2021-11-07T05:14:42Z
2021-11-07T03:16:20Z,42.805,6.029,13.2995,4.60012,2470.366,2021-11-07T05:17:45Z
2021-11-07T03:19:23Z,42.805,6.029,13.2990,4.60013,2470.343,2021-11-07T05:20:49Z
2021-11-07T03:22:26Z,42.805,6.029,13.2992,4.60012,2470.38,2021-11-07T05:23:52Z
2021-11-07T03:25:30Z,42.805,6.029,13.2991,4.60011,2470.343,2021-11-07T05:26:55Z
2021-11-07T03:28:33Z,42.805,6.029,13.2990,4.60011,2470.38,2021-11-07T05:29:58Z
2021-11-07T03:31:36Z,42.805,6.029,13.2990,4.60014,2470.38,2021-11-07T05:33:01Z
2021-11-07T03:34:39Z,42.805,6.029,13.2989,4.60011,2470.343,2021-11-07T05:36:04Z
2021-11-07T03:37:42Z,42.805,6.029,13.2993,4.60011,2470.343,2021-11-07T05:39:07Z
2021-11-07T03:40:45Z,42.805,6.029,13.2993,4.60014,2470.357,2021-11-07T05:42:10Z
2021-11-07T03:43:48Z,42.805,6.029,13.2990,4.60011,2470.343,2021-11-07T05:45:14Z
2021-11-07T03:46:51Z,42.805,6.029,13.2993,4.60016,2470.357,2021-11-07T05:48:17Z
2021-11-07T03:49:54Z,42.805,6.029,13.2992,4.60012,2470.357,2021-11-07T05:51:20Z
2021-11-07T03:52:58Z,42.805,6.029,13.2991,4.60011,2470.357,2021-11-07T05:54:23Z
2021-11-07T03:56:01Z,42.805,6.029,13.2991,4.60016,2470.343,2021-11-07T05:57:26Z
2021-11-07T03:59:04Z,42.805,6.029,13.2992,4.60014,2470.343,2021-11-07T06:00:29Z
2021-11-07T04:02:07Z,42.805,6.029,13.2991,4.60011,2470.38,2021-11-07T06:03:32Z
2021-11-07T04:05:10Z,42.805,6.029,13.2991,4.60011,2470.357,2021-11-07T06:06:35Z
2021-11-07T04:08:13Z,42.805,6.029,13.2990,4.60011,2470.366,2021-11-07T06:09:39Z
2021-11-07T04:11:16Z,42.805,6.029,13.2993,4.60010,2470.357,2021-11-07T06:12:42Z
2021-11-07T04:14:19Z,42.805,6.029,13.2992,4.60013,2470.38,2021-11-07T06:15:45Z
2021-11-07T04:17:23Z,42.805,6.029,13.2995,4.60011,2470.343,2021-11-07T06:18:48Z
2021-11-07T04:20:26Z,42.805,6.029,13.2991,4.60011,2470.404,2021-11-07T06:21:51Z
2021-11-07T04:23:29Z,42.805,6.029,13.2991,4.60011,2470.366,2021-11-07T06:24:54Z
2021-11-07T04:26:32Z,42.805,6.029,13.2991,4.60011,2470.366,2021-11-07T06:27:57Z
2021-11-07T04:29:35Z,42.805,6.029,13.2990,4.60011,2470.404,2021-11-07T06:31:00Z
2021-11-07T04:32:38Z,42.805,6.029,13.2991,4.60011,2470.39,2021-11-07T06:34:03Z
2021-11-07T04:35:41Z,42.805,6.029,13.2987,4.60011,2470.427,2021-11-07T06:37:07Z
2021-11-07T04:38:44Z,42.805,6.029,13.2994,4.60012,2470.366,2021-11-07T06:40:10Z
2021-11-07T04:41:47Z,42.805,6.029,13.2991,4.60010,2470.366,2021-11-07T06:43:13Z
2021-11-07T04:44:51Z,42.805,6.029,13.2989,4.60012,2470.39,2021-11-07T06:46:16Z
2021-11-07T04:47:54Z,42.805,6.029,13.2990,4.60013,2470.413,2021-11-07T06:49:19Z
2021-11-07T04:50:57Z,42.805,6.029,13.2990,4.60011,2470.404,2021-11-07T06:52:22Z
2021-11-07T04:54:00Z,42.805,6.029,13.2991,4.60011,2470.413,2021-11-07T06:55:25Z
2021-11-07T04:57:03Z,42.805,6.029,13.2990,4.60011,2470.404,2021-11-07T06:58:28Z
2021-11-07T05:00:06Z,42.805,6.029,13.2991,4.60011,2470.45,2021-11-07T07:01:32Z
2021-11-07T05:03:09Z,42.805,6.029,13.2990,4.60012,2470.427,2021-11-07T07:04:35Z
2021-11-07T05:06:13Z,42.805,6.029,13.2994,4.60013,2470.39,2021-11-07T07:07:38Z
2021-11-07T05:09:16Z,42.805,6.029,13.2991,4.60011,2470.427,2021-11-07T07:10:42Z
2021-11-07T05:12:19Z,42.805,6.029,13.2996,4.60011,2470.45,2021-11-07T07:13:45Z
2021-11-07T05:15:22Z,42.805,6.029,13.2991,4.60013,2470.437,2021-11-07T07:16:48Z
2021-11-07T05:18:26Z,42.805,6.029,13.2989,4.60011,2470.45,2021-11-07T07:19:51Z
2021-11-07T05:21:29Z,42.805,6.029,13.2990,4.60013,2470.413,2021-11-07T07:22:54Z
2021-11-07T05:24:32Z,42.805,6.029,13.2993,4.60014,2470.437,2021-11-07T07:25:57Z
2021-11-07T05:27:35Z,42.805,6.029,13.2991,4.60012,2470.413,2021-11-07T07:29:00Z
2021-11-07T05:30:38Z,42.805,6.029,13.2993,4.60011,2470.474,2021-11-07T07:32:03Z
2021-11-07T05:33:41Z,42.805,6.029,13.2991,4.60011,2470.46,2021-11-07T07:35:06Z
2021-11-07T05:36:44Z,42.805,6.029,13.2991,4.60014,2470.46,2021-11-07T07:38:10Z
2021-11-07T05:39:47Z,42.805,6.029,13.2990,4.60016,2470.46,2021-11-07T07:41:13Z
2021-11-07T05:42:51Z,42.805,6.029,13.2989,4.60013,2470.483,2021-11-07T07:44:16Z
2021-11-07T05:45:54Z,42.805,6.029,13.2991,4.60014,2470.483,2021-11-07T07:47:19Z
2021-11-07T05:48:57Z,42.805,6.029,13.2993,4.60014,2470.483,2021-11-07T07:50:22Z
2021-11-07T05:52:00Z,42.805,6.029,13.2992,4.60014,2470.46,2021-11-07T07:53:25Z
2021-11-07T05:55:03Z,42.805,6.029,13.2991,4.60011,2470.507,2021-11-07T07:56:28Z
2021-11-07T05:58:06Z,42.805,6.029,13.2991,4.60011,2470.483,2021-11-07T07:59:31Z
2021-11-07T06:01:09Z,42.805,6.029,13.2992,4.60014,2470.46,2021-11-07T08:02:35Z
2021-11-07T06:04:12Z,42.805,6.029,13.2993,4.60012,2470.483,2021-11-07T08:05:38Z
2021-11-07T06:07:15Z,42.805,6.029,13.2990,4.60012,2470.483,2021-11-07T08:08:41Z
2021-11-07T06:10:19Z,42.805,6.029,13.2992,4.60013,2470.507,2021-11-07T08:11:44Z
2021-11-07T06:13:22Z,42.805,6.029,13.2991,4.60014,2470.497,2021-11-07T08:14:47Z
2021-11-07T06:16:25Z,42.805,6.029,13.2993,4.60011,2470.52,2021-11-07T08:17:50Z
2021-11-07T06:19:28Z,42.805,6.029,13.2992,4.60015,2470.507,2021-11-07T08:20:53Z
2021-11-07T06:22:31Z,42.805,6.029,13.2993,4.60015,2470.544,2021-11-07T08:23:56Z
2021-11-07T06:25:34Z,42.805,6.029,13.2990,4.60014,2470.553,2021-11-07T08:27:00Z
2021-11-07T06:28:37Z,42.805,6.029,13.2990,4.60011,2470.567,2021-11-07T08:30:03Z
2021-11-07T06:31:40Z,42.805,6.029,13.2987,4.60014,2470.553,2021-11-07T08:33:06Z
2021-11-07T06:34:44Z,42.805,6.029,13.2993,4.60015,2470.53,2021-11-07T08:36:09Z
2021-11-07T06:37:47Z,42.805,6.029,13.2992,4.60013,2470.507,2021-11-07T08:39:12Z
2021-11-07T06:40:50Z,42.805,6.029,13.2991,4.60014,2470.577,2021-11-07T08:42:15Z
2021-11-07T06:43:53Z,42.805,6.029,13.2993,4.60014,2470.53,2021-11-07T08:45:18Z
2021-11-07T06:46:56Z,42.805,6.029,13.2993,4.60014,2470.553,2021-11-07T08:48:21Z
2021-11-07T06:49:59Z,42.805,6.029,13.2993,4.60014,2470.567,2021-11-07T08:51:24Z
2021-11-07T06:53:02Z,42.805,6.029,13.2991,4.60012,2470.553,2021-11-07T08:54:28Z
2021-11-07T06:56:05Z,42.805,6.029,13.2991,4.60013,2470.53,2021-11-07T08:57:31Z
2021-11-07T06:59:09Z,42.805,6.029,13.2991,4.60014,2470.53,2021-11-07T09:00:34Z
2021-11-07T07:02:12Z,42.805,6.029,13.2992,4.60011,2470.553,2021-11-07T09:03:37Z
2021-11-07T07:05:15Z,42.805,6.029,13.2991,4.60014,2470.553,2021-11-07T09:06:40Z
2021-11-07T07:08:18Z,42.805,6.029,13.2993,4.60014,2470.577,2021-11-07T09:09:43Z
2021-11-07T07:11:21Z,42.805,6.029,13.2990,4.60014,2470.53,2021-11-07T09:12:46Z
2021-11-07T07:14:24Z,42.805,6.029,13.2993,4.60014,2470.553,2021-11-07T09:15:49Z
2021-11-07T07:17:27Z,42.805,6.029,13.2993,4.60015,2470.567,2021-11-07T09:18:53Z
2021-11-07T07:20:30Z,42.805,6.029,13.2992,4.60016,2470.591,2021-11-07T09:21:56Z
2021-11-07T07:23:33Z,42.805,6.029,13.2991,4.60014,2470.577,2021-11-07T09:24:59Z
2021-11-07T07:26:37Z,42.805,6.029,13.2993,4.60014,2470.577,2021-11-07T09:28:02Z
2021-11-07T07:29:40Z,42.805,6.029,13.2990,4.60014,2470.567,2021-11-07T09:31:05Z
2021-11-07T07:32:43Z,42.805,6.029,13.2992,4.60013,2470.577,2021-11-07T09:34:08Z
2021-11-07T07:35:46Z,42.805,6.029,13.2991,4.60014,2470.577,2021-11-07T09:37:11Z
2021-11-07T07:38:49Z,42.805,6.029,13.2994,4.60013,2470.6,2021-11-07T09:40:14Z
2021-11-07T07:41:52Z,42.805,6.029,13.2993,4.60015,2470.577,2021-11-07T09:43:17Z
2021-11-07T07:44:55Z,42.805,6.029,13.2992,4.60013,2470.6,2021-11-07T09:46:21Z
2021-11-07T07:47:58Z,42.805,6.029,13.2991,4.60013,2470.577,2021-11-07T09:49:24Z
2021-11-07T07:51:02Z,42.805,6.029,13.2991,4.60014,2470.591,2021-11-07T09:52:27Z
2021-11-07T07:54:05Z,42.805,6.029,13.2995,4.60014,2470.6,2021-11-07T09:55:30Z
2021-11-07T07:57:08Z,42.805,6.029,13.2991,4.60013,2470.6,2021-11-07T09:58:33Z
2021-11-07T08:00:11Z,42.805,6.029,13.2994,4.60014,2470.6,2021-11-07T10:01:36Z
2021-11-07T08:03:14Z,42.805,6.029,13.2993,4.60014,2470.6,2021-11-07T10:04:39Z
2021-11-07T08:06:17Z,42.805,6.029,13.2991,4.60015,2470.6,2021-11-07T10:07:42Z
2021-11-07T08:09:20Z,42.805,6.029,13.2996,4.60014,2470.577,2021-11-07T10:10:46Z
2021-11-07T08:12:23Z,42.805,6.029,13.2991,4.60013,2470.614,2021-11-07T10:13:49Z
2021-11-07T08:15:26Z,42.805,6.029,13.2990,4.60013,2470.577,2021-11-07T10:16:52Z
2021-11-07T08:18:30Z,42.805,6.029,13.2993,4.60014,2470.577,2021-11-07T10:19:55Z
2021-11-07T08:21:33Z,42.805,6.029,13.2992,4.60013,2470.637,2021-11-07T10:22:58Z
2021-11-07T08:24:36Z,42.805,6.029,13.2990,4.60015,2470.624,2021-11-07T10:26:01Z
2021-11-07T08:27:39Z,42.805,6.029,13.2991,4.60016,2470.6,2021-11-07T10:29:04Z
2021-11-07T08:30:42Z,42.805,6.029,13.2992,4.60014,2470.6,2021-11-07T10:32:07Z
2021-11-07T08:33:45Z,42.805,6.029,13.2992,4.60016,2470.577,2021-11-07T10:35:11Z
2021-11-07T08:36:48Z,42.805,6.029,13.2991,4.60014,2470.6,2021-11-07T10:38:14Z
2021-11-07T08:39:51Z,42.805,6.029,13.2997,4.60015,2470.624,2021-11-07T10:41:17Z
2021-11-07T08:42:55Z,42.805,6.029,13.2996,4.60014,2470.577,2021-11-07T10:44:20Z
2021-11-07T08:45:58Z,42.805,6.029,13.2992,4.60013,2470.637,2021-11-07T10:47:23Z
2021-11-07T08:49:01Z,42.805,6.029,13.2991,4.60014,2470.6,2021-11-07T10:50:26Z
2021-11-07T08:52:04Z,42.805,6.029,13.2996,4.60015,2470.6,2021-11-07T10:53:29Z
2021-11-07T08:55:07Z,42.805,6.029,13.2995,4.60014,2470.6,2021-11-07T10:56:32Z
2021-11-07T08:58:10Z,42.805,6.029,13.2994,4.60014,2470.6,2021-11-07T10:59:36Z
2021-11-07T09:01:13Z,42.805,6.029,13.2995,4.60016,2470.624,2021-11-07T11:02:39Z
2021-11-07T09:04:16Z,42.805,6.029,13.2993,4.60016,2470.577,2021-11-07T11:05:42Z
2021-11-07T09:07:20Z,42.805,6.029,13.2991,4.60016,2470.624,2021-11-07T11:08:45Z
2021-11-07T09:10:23Z,42.805,6.029,13.2993,4.60014,2470.624,2021-11-07T11:11:48Z
2021-11-07T09:13:26Z,42.805,6.029,13.2991,4.60014,2470.614,2021-11-07T11:14:51Z
2021-11-07T09:16:29Z,42.805,6.029,13.2993,4.60013,2470.6,2021-11-07T11:17:54Z
2021-11-07T09:19:32Z,42.805,6.029,13.2993,4.60014,2470.6,2021-11-07T11:20:57Z
2021-11-07T09:22:35Z,42.805,6.029,13.2992,4.60014,2470.6,2021-11-07T11:24:00Z
2021-11-07T09:25:38Z,42.805,6.029,13.2993,4.60012,2470.614,2021-11-07T11:27:04Z
2021-11-07T09:28:41Z,42.805,6.029,13.2994,4.60014,2470.6,2021-11-07T11:30:07Z
2021-11-07T09:31:45Z,42.805,6.029,13.2991,4.60015,2470.591,2021-11-07T11:33:10Z
2021-11-07T09:34:48Z,42.805,6.029,13.2993,4.60013,2470.614,2021-11-07T11:36:13Z
2021-11-07T09:37:51Z,42.805,6.029,13.2993,4.60015,2470.6,2021-11-07T11:39:16Z
2021-11-07T09:40:54Z,42.805,6.029,13.2991,4.60012,2470.6,2021-11-07T11:42:19Z
2021-11-07T09:43:57Z,42.805,6.029,13.2991,4.60014,2470.577,2021-11-07T11:45:22Z
2021-11-07T09:47:00Z,42.805,6.029,13.2991,4.60013,2470.591,2021-11-07T11:48:25Z
2021-11-07T09:50:03Z,42.805,6.029,13.2996,4.60015,2470.577,2021-11-07T11:51:29Z
2021-11-07T09:53:06Z,42.805,6.029,13.2991,4.60015,2470.577,2021-11-07T11:54:32Z
2021-11-07T09:56:09Z,42.805,6.029,13.2991,4.60014,2470.6,2021-11-07T11:57:35Z
2021-11-07T09:59:13Z,42.805,6.029,13.2991,4.60014,2470.6,2021-11-07T12:00:38Z
2021-11-07T10:02:16Z,42.805,6.029,13.2990,4.60011,2470.586,2021-11-07T12:03:41Z
2021-11-07T10:05:19Z,42.805,6.029,13.2993,4.60014,2470.577,2021-11-07T12:06:44Z
2021-11-07T10:08:22Z,42.805,6.029,13.2993,4.60014,2470.591,2021-11-07T12:09:47Z
2021-11-07T10:11:25Z,42.805,6.029,13.2991,4.60012,2470.591,2021-11-07T12:12:50Z
2021-11-07T10:14:28Z,42.805,6.029,13.2993,4.60014,2470.553,2021-11-07T12:15:54Z
2021-11-07T10:17:31Z,42.805,6.029,13.2990,4.60012,2470.577,2021-11-07T12:18:57Z
2021-11-07T10:20:34Z,42.805,6.029,13.2991,4.60012,2470.6,2021-11-07T12:22:00Z
2021-11-07T10:23:38Z,42.805,6.029,13.2989,4.60013,2470.591,2021-11-07T12:25:03Z
2021-11-07T10:26:41Z,42.805,6.029,13.2993,4.60013,2470.553,2021-11-07T12:28:06Z
2021-11-07T10:29:44Z,42.805,6.029,13.2991,4.60011,2470.577,2021-11-07T12:31:09Z
2021-11-07T10:32:47Z,42.805,6.029,13.2991,4.60014,2470.567,2021-11-07T12:34:12Z
2021-11-07T10:35:50Z,42.805,6.029,13.2991,4.60011,2470.591,2021-11-07T12:37:15Z
2021-11-07T10:38:53Z,42.805,6.029,13.2993,4.60012,2470.53,2021-11-07T12:40:19Z
2021-11-07T10:41:56Z,42.805,6.029,13.2993,4.60014,2470.591,2021-11-07T12:43:22Z
2021-11-07T10:44:59Z,42.805,6.029,13.2993,4.60013,2470.553,2021-11-07T12:46:25Z
2021-11-07T10:48:03Z,42.805,6.029,13.2995,4.60014,2470.53,2021-11-07T12:49:28Z
2021-11-07T10:51:06Z,42.805,6.029,13.2989,4.60014,2470.553,2021-11-07T12:52:31Z
2021-11-07T10:54:09Z,42.805,6.029,13.2993,4.60014,2470.516,2021-11-07T12:55:34Z
2021-11-07T10:57:12Z,42.805,6.029,13.2994,4.60014,2470.567,2021-11-07T12:58:37Z
2021-11-07T11:00:15Z,42.805,6.029,13.2989,4.60013,2470.544,2021-11-07T13:01:40Z
2021-11-07T11:03:18Z,42.805,6.029,13.2990,4.60014,2470.539,2021-11-07T13:04:44Z
2021-11-07T11:06:21Z,42.805,6.029,13.2996,4.60013,2470.53,2021-11-07T13:07:47Z
2021-11-07T11:09:24Z,42.805,6.029,13.2994,4.60013,2470.53,2021-11-07T13:10:50Z
2021-11-07T11:12:28Z,42.805,6.029,13.2995,4.60011,2470.52,2021-11-07T13:13:53Z
2021-11-07T11:15:31Z,42.805,6.029,13.2993,4.60012,2470.53,2021-11-07T13:16:56Z
2021-11-07T11:18:34Z,42.805,6.029,13.2990,4.60012,2470.507,2021-11-07T13:19:59Z
2021-11-07T11:21:37Z,42.805,6.029,13.2993,4.60014,2470.53,2021-11-07T13:23:02Z
2021-11-07T11:24:40Z,42.805,6.029,13.2990,4.60014,2470.53,2021-11-07T13:26:05Z
2021-11-07T11:27:43Z,42.805,6.029,13.2993,4.60011,2470.507,2021-11-07T13:29:09Z
2021-11-07T11:30:46Z,42.805,6.029,13.2990,4.60013,2470.52,2021-11-07T13:32:12Z
2021-11-07T11:33:49Z,42.805,6.029,13.2995,4.60011,2470.553,2021-11-07T13:35:15Z
2021-11-07T11:36:53Z,42.805,6.029,13.2996,4.60011,2470.507,2021-11-07T13:38:18Z
2021-11-07T11:39:56Z,42.805,6.029,13.2988,4.60012,2470.544,2021-11-07T13:41:21Z
2021-11-07T11:42:59Z,42.805,6.029,13.2993,4.60011,2470.507,2021-11-07T13:44:24Z
2021-11-07T11:46:02Z,42.805,6.029,13.2992,4.60012,2470.544,2021-11-07T13:47:27Z
2021-11-07T11:49:05Z,42.805,6.029,13.2990,4.60014,2470.507,2021-11-07T13:50:30Z
2021-11-07T11:52:08Z,42.805,6.029,13.2991,4.60012,2470.483,2021-11-07T13:53:34Z
2021-11-07T11:55:11Z,42.805,6.029,13.2991,4.60012,2470.507,2021-11-07T13:56:37Z
2021-11-07T11:58:14Z,42.805,6.029,13.2992,4.60016,2470.483,2021-11-07T13:59:40Z
2021-11-07T12:01:18Z,42.805,6.029,13.2991,4.60013,2470.52,2021-11-07T14:02:43Z
2021-11-07T12:04:21Z,42.805,6.029,13.2993,4.60014,2470.483,2021-11-07T14:05:46Z
2021-11-07T12:07:24Z,42.805,6.029,13.2993,4.60014,2470.46,2021-11-07T14:08:49Z
2021-11-07T12:10:27Z,42.805,6.029,13.2992,4.60016,2470.52,2021-11-07T14:11:52Z
2021-11-07T12:13:30Z,42.805,6.029,13.2991,4.60012,2470.497,2021-11-07T14:14:55Z
2021-11-07T12:16:33Z,42.805,6.029,13.2990,4.60011,2470.53,2021-11-07T14:17:59Z
2021-11-07T12:19:36Z,42.805,6.029,13.2988,4.60014,2470.507,2021-11-07T14:21:02Z
2021-11-07T12:22:39Z,42.805,6.029,13.2992,4.60011,2470.483,2021-11-07T14:24:05Z
2021-11-07T12:25:43Z,42.805,6.029,13.2992,4.60013,2470.483,2021-11-07T14:27:08Z
2021-11-07T12:28:46Z,42.805,6.029,13.2994,4.60012,2470.483,2021-11-07T14:30:11Z
2021-11-07T12:31:49Z,42.805,6.029,13.2991,4.60012,2470.46,2021-11-07T14:33:14Z
2021-11-07T12:34:52Z,42.805,6.029,13.2990,4.60011,2470.483,2021-11-07T14:36:17Z
2021-11-07T12:37:55Z,42.805,6.029,13.2993,4.60013,2470.52,2021-11-07T14:39:20Z
2021-11-07T12:40:58Z,42.805,6.029,13.2990,4.60011,2470.483,2021-11-07T14:42:24Z
2021-11-07T12:44:01Z,42.805,6.029,13.2994,4.60014,2470.45,2021-11-07T14:45:27Z
2021-11-07T12:47:04Z,42.805,6.029,13.2991,4.60010,2470.474,2021-11-07T14:48:30Z
2021-11-07T12:50:08Z,42.805,6.029,13.2991,4.60011,2470.46,2021-11-07T14:51:33Z
2021-11-07T12:53:11Z,42.805,6.029,13.2991,4.60010,2470.483,2021-11-07T14:54:36Z
2021-11-07T12:56:14Z,42.805,6.029,13.2993,4.60013,2470.46,2021-11-07T14:57:39Z
2021-11-07T12:59:17Z,42.805,6.029,13.2995,4.60014,2470.46,2021-11-07T15:00:42Z
2021-11-07T13:02:20Z,42.805,6.029,13.2993,4.60011,2470.437,2021-11-07T15:03:45Z
2021-11-07T13:05:23Z,42.805,6.029,13.2991,4.60013,2470.45,2021-11-07T15:06:49Z
2021-11-07T13:08:26Z,42.805,6.029,13.2991,4.60011,2470.437,2021-11-07T15:09:52Z
2021-11-07T13:11:29Z,42.805,6.029,13.2991,4.60012,2470.483,2021-11-07T15:12:55Z
2021-11-07T13:14:32Z,42.805,6.029,13.2993,4.60011,2470.413,2021-11-07T15:15:58Z
2021-11-07T13:17:36Z,42.805,6.029,13.2989,4.60011,2470.437,2021-11-07T15:19:01Z
2021-11-07T13:20:39Z,42.805,6.029,13.2993,4.60011,2470.427,2021-11-07T15:22:04Z
2021-11-07T13:23:42Z,42.805,6.029,13.2992,4.60011,2470.474,2021-11-07T15:25:07Z
2021-11-07T13:26:45Z,42.805,6.029,13.2996,4.60011,2470.437,2021-11-07T15:28:10Z
2021-11-07T13:29:48Z,42.805,6.029,13.2992,4.60011,2470.45,2021-11-07T15:31:13Z
2021-11-07T13:32:51Z,42.805,6.029,13.2995,4.60011,2470.427,2021-11-07T15:34:17Z
2021-11-07T13:35:54Z,42.805,6.029,13.2994,4.60010,2470.413,2021-11-07T15:37:20Z
2021-11-07T13:38:57Z,42.805,6.029,13.2990,4.60010,2470.437,2021-11-07T15:40:23Z
2021-11-07T13:42:01Z,42.805,6.029,13.2995,4.60009,2470.413,2021-11-07T15:43:26Z
2021-11-07T13:45:04Z,42.805,6.029,13.2990,4.60011,2470.413,2021-11-07T15:46:29Z
2021-11-07T13:48:07Z,42.805,6.029,13.2991,4.60011,2470.45,2021-11-07T15:49:32Z
2021-11-07T13:51:10Z,42.805,6.029,13.2991,4.60009,2470.45,2021-11-07T15:52:35Z
2021-11-07T13:54:13Z,42.805,6.029,13.2991,4.60011,2470.413,2021-11-07T15:55:38Z
2021-11-07T13:57:16Z,42.805,6.029,13.2992,4.60013,2470.427,2021-11-07T15:58:42Z
2021-11-07T14:00:19Z,42.805,6.029,13.2992,4.60014,2470.437,2021-11-07T16:01:45Z
2021-11-07T14:03:22Z,42.805,6.029,13.2991,4.60011,2470.413,2021-11-07T16:04:48Z
2021-11-07T14:06:26Z,42.805,6.029,13.2993,4.60011,2470.38,2021-11-07T16:07:51Z
2021-11-07T14:09:29Z,42.805,6.029,13.2991,4.60010,2470.39,2021-11-07T16:10:54Z
2021-11-07T14:12:32Z,42.805,6.029,13.2991,4.60010,2470.437,2021-11-07T16:13:57Z
2021-11-07T14:15:35Z,42.805,6.029,13.2993,4.60011,2470.404,2021-11-07T16:17:00Z
2021-11-07T14:18:38Z,42.805,6.029,13.2990,4.60013,2470.376,2021-11-07T16:20:03Z
2021-11-07T14:21:41Z,42.805,6.029,13.2989,4.60011,2470.38,2021-11-07T16:23:07Z
2021-11-07T14:24:44Z,42.805,6.029,13.2995,4.60012,2470.39,2021-11-07T16:26:10Z
2021-11-07T14:27:47Z,42.805,6.029,13.2992,4.60010,2470.39,2021-11-07T16:29:13Z
2021-11-07T14:30:51Z,42.805,6.029,13.2989,4.60011,2470.39,2021-11-07T16:32:16Z
2021-11-07T14:33:54Z,42.805,6.029,13.2995,4.60011,2470.366,2021-11-07T16:35:19Z
2021-11-07T14:36:57Z,42.805,6.029,13.2991,4.60013,2470.413,2021-11-07T16:38:22Z
2021-11-07T14:40:00Z,42.805,6.029,13.2992,4.60010,2470.413,2021-11-07T16:41:25Z
2021-11-07T14:43:03Z,42.805,6.029,13.2996,4.60011,2470.39,2021-11-07T16:44:28Z
2021-11-07T14:46:06Z,42.805,6.029,13.2993,4.60011,2470.413,2021-11-07T16:47:32Z
2021-11-07T14:49:09Z,42.805,6.029,13.2990,4.60012,2470.39,2021-11-07T16:50:35Z
2021-11-07T14:52:12Z,42.805,6.029,13.2991,4.60011,2470.39,2021-11-07T16:53:38Z
2021-11-07T14:55:16Z,42.805,6.029,13.2991,4.60011,2470.366,2021-11-07T16:56:41Z
2021-11-07T14:58:19Z,42.805,6.029,13.2987,4.60011,2470.404,2021-11-07T16:59:44Z
2021-11-07T15:01:22Z,42.805,6.029,13.2991,4.60011,2470.366,2021-11-07T17:02:47Z